Regional Weather Roundup
Issued by NWS Bismarck, ND

Home | Current Version | Previous Version | Text Only | Print | Product List | Glossary On
Versions: 1 2 3 4 5 6 7 8 9 10 11 12 13 14 15 16 17 18 19 20 21 22 23 24 25 26 27 28 29 30 31 32 33 34 35 36 37 38 39 40 41 42 43 44 45 46 47 48 49 50
000
ASUS43 KBIS 250520
RWRBIS

NWR BROADCAST TEXT
NATIONAL WEATHER SERVICE BISMARCK ND
1200 AM CDT FRI JUL 25 2014

NOTE: "FAIR" INDICATES FEW OR NO CLOUDS BELOW 12,000 FEET WITH NO
SIGNIFICANT WEATHER AND/OR OBSTRUCTIONS TO VISIBILITY.


CITY           SKY/WX    TMP DP  RH WIND       PRES   REMARKS
WILLISTON      MOCLDY    64  60  87 NW10      29.80R
MINOT          CLOUDY    69  66  90 E7        29.74R
MINOT AFB      CLOUDY    70  69  99 E12       29.73R
BISMARCK       LGT RAIN  71  65  81 SE5       29.73R
DICKINSON      MOCLDY    69  67  93 NW15      29.76R
GARRISON         N/A     70  67  90 E9        29.68F
HETTINGER ARPT PTCLDY    70  66  87 NW9       29.75R
JAMESTOWN      CLOUDY    68  63  84 SE9       29.74R
CARRINGTON     CLOUDY    66  66 100 E6        29.78S
CROSBY         MOCLDY    61  61 100 NW16G25   29.79R
HARVEY         FAIR      66  66 100 E10       29.74F
HAZEN          FAIR      70  64  83 W5        29.68R
LINTON         FAIR      68  66  94 E7        29.70R
MANDAN         MOCLDY    68  64  88 SE8       29.73F
RUGBY          CLOUDY    66  66 100 E12       29.79S THUNDER
STANLEY        MOCLDY    68  68 100 N3        29.77S
TIOGA          LGT RAIN  66  66 100 CALM      29.81R
WATFORD CITY   FAIR      63  63 100 N3        29.78R
$$

CITY           SKY/WX    TMP DP  RH WIND       PRES   REMARKS
GRAND FORKS    CLOUDY    70  62  76 SE9       29.79F
GRAND FORKS AF CLOUDY    69  65  88 E6        29.80F
DEVILS LAKE    CLOUDY    68  61  77 SE9       29.78R
FARGO          PTCLDY    70  61  73 SE10      29.78F
CANDO          CLOUDY    66  64  94 SE5       29.82R
CAVALIER       MOCLDY    68  63  83 SE6       29.78F
GRAFTON        CLOUDY    68  63  83 SE9       29.80S
GWINNER        CLEAR     68  66  94 SE10      29.73F
LANGDON        CLOUDY    66  61  82 S7        29.82R
ROLLA          CLOUDY    66  66 100 SE3       29.85S
WALHALLA         N/A     68  66  94 S8          N/A
$$

CITY           SKY/WX    TMP DP  RH WIND       PRES   REMARKS
ABERDEEN       CLOUDY    68  63  84 SE8       29.71F
MOBRIDGE       CLOUDY    73  65  75 E15G25    29.60F
BUFFALO          N/A     67  61  81 NW30G38   29.74R
RAPID CITY     CLEAR     74  61  63 NW20      29.74R
GLASGOW        CLEAR     63  39  41 N3        29.86R
SIDNEY         PTCLDY    63  54  72 NW5       29.85R
WOLF POINT     CLEAR     58  53  84 CALM      29.86R
GLENDIVE       PTCLDY    63  48  59 N9        29.89R
MILES CITY     CLEAR     65  48  54 NE8       29.90R
BAKER          CLEAR     64  49  57 NW13      29.88R
$$

CITY           SKY/WX    TMP DP  RH WIND       PRES   REMARKS
BILLINGS       CLEAR     73  35  25 N12       29.94R
GREAT FALLS    CLEAR     58  33  39 W12       29.98R
REGINA         MOCLDY    59  57  94 SW10      29.77S
ESTEVAN        CLOUDY   N/A N/A N/A W9          N/A
$$




USA.gov is the U.S. government's official web portal to all federal, state and local government web resources and services.